Wind_Speed
19 18 18 18 20 19 17 16 16 15 14 13 12 11 11 10 8 7 6 5 6 5 6 6 8 9 10 10 11 13 13 14 13 13 13 13 14 14 14 13 13 13 12 11 11 10 10 9 8
18 18 18 19 21 17 17 17 16 16 15 14 13 12 12 11 9 8 7 6 6 6 5 6 7 9 10 10 12 13 14 14 14 14 13 13 13 15 15 13 12 12 11 11 11 10 10 9 8
18 18 18 20 18 17 17 17 17 16 15 15 14 13 12 12 11 10 8 7 7 6 5 6 7 9 10 9 11 13 14 14 15 14 14 13 14 15 14 12 12 12 11 11 11 10 9 9 8
17 17 18 18 16 16 16 17 17 16 16 15 15 14 14 12 11 10 9 8 7 6 6 6 8 8 9 9 10 12 14 14 15 14 15 14 14 14 13 13 12 12 11 11 10 10 9 9 8
15 16 18 16 15 16 16 16 16 17 17 16 15 15 15 13 11 10 9 8 7 7 6 6 7 8 9 9 10 12 13 14 15 15 15 14 14 13 12 12 11 11 11 11 9 9 8 8 8
14 16 16 14 14 15 15 16 16 17 17 17 16 16 15 14 12 10 9 9 8 7 6 6 7 8 8 10 11 12 13 14 16 15 14 14 13 12 12 10 11 10 10 10 10 8 9 8 8
14 15 14 14 14 14 15 15 16 17 17 17 16 17 16 15 14 12 10 10 8 7 7 7 8 7 7 9 11 12 13 14 14 14 13 13 13 12 11 11 11 10 10 10 10 8 8 8 7
12 14 13 13 14 14 14 15 15 16 17 16 16 16 16 15 14 13 12 10 9 9 8 8 8 7 8 9 10 12 13 13 13 13 12 12 12 11 11 10 10 10 10 9 9 8 8 7 7
11 13 11 12 13 14 15 15 15 15 16 16 16 16 16 15 14 13 12 11 10 9 8 8 8 8 8 9 10 11 12 13 12 13 13 13 12 11 11 10 10 9 9 8 8 8 7 7 7
10 10 10 10 12 13 14 15 15 15 15 15 15 15 15 15 14 13 12 11 10 9 8 8 8 7 7 8 9 10 11 11 12 12 13 12 11 11 11 10 10 9 9 8 8 7 6 6 6
8 9 9 9 10 12 13 14 14 14 14 14 14 14 14 14 14 13 12 11 11 9 8 7 7 7 8 8 9 9 11 11 11 11 12 12 12 11 10 9 10 8 9 8 8 6 6 5 5
6 6 6 7 8 9 11 12 13 13 13 13 13 13 13 13 13 12 11 10 10 10 8 7 7 7 8 8 8 8 10 10 11 11 10 10 12 11 11 10 9 9 8 8 8 6 6 6 6
4 4 4 5 5 7 9 11 11 12 12 12 12 12 12 13 12 12 11 10 9 9 9 8 7 8 8 7 6 7 7 9 10 11 10 10 11 11 11 10 9 9 8 8 8 7 7 5 5
4 3 2 3 4 5 7 8 9 10 11 11 11 11 11 12 12 11 11 10 9 8 8 7 7 6 6 7 6 6 7 8 10 10 9 10 10 9 9 9 8 8 7 7 7 7 6 5 5
4 3 2 1 1 2 4 6 7 8 10 10 10 10 10 11 11 10 10 9 9 8 7 7 7 7 6 6 6 6 7 9 9 9 9 9 9 9 8 8 7 7 7 7 7 7 5 5 5
6 5 4 4 2 1 1 3 5 6 8 9 9 9 9 9 9 9 9 9 8 7 7 7 6 6 6 6 6 6 7 8 8 8 8 8 8 8 8 8 8 7 7 6 6 6 5 5 5
8 8 8 8 5 3 1 0 2 4 6 7 8 8 8 8 8 7 7 7 7 6 6 5 5 5 5 6 6 6 6 7 7 7 7 7 8 8 7 8 7 6 6 5 5 6 5 5 5
11 11 10 9 8 6 4 3 4 3 4 5 6 7 7 7 8 7 6 6 6 5 4 4 4 3 3 4 4 5 5 5 6 6 6 7 6 6 6 6 6 5 5 5 5 5 5 5 5
13 13 12 11 10 8 7 6 6 5 5 4 5 5 6 7 7 6 6 5 5 4 3 4 3 2 2 2 2 2 3 3 4 4 4 4 5 5 5 5 5 4 4 4 4 5 5 5 5
15 14 13 13 13 11 10 9 8 7 6 5 5 5 5 6 6 6 6 6 5 5 4 3 3 2 1 1 0 0 1 2 3 3 3 4 4 5 5 5 5 5 5 5 5 5 5 5 5
16 16 15 16 15 14 12 10 10 9 8 7 6 6 6 6 6 6 6 6 6 5 5 4 3 3 2 2 2 2 2 3 3 3 4 4 5 5 6 6 6 6 6 6 6 6 6 6 6
17 18 18 17 16 14 14 12 12 11 9 9 8 8 8 8 7 7 7 6 6 6 6 5 5 5 5 4 4 4 4 4 4 4 5 5 6 6 6 7 7 7 7 7 7 8 8 8 8
19 19 19 19 18 17 16 15 14 14 12 10 10 9 9 9 8 8 7 7 8 8 7 7 6 6 6 6 6 5 5 6 6 6 6 6 7 7 7 7 7 8 8 8 9 10 10 10 10
20 20 20 20 19 20 18 17 15 15 14 12 12 12 11 11 11 10 9 9 9 9 9 8 8 8 8 8 8 8 7 8 8 8 8 8 8 8 8 9 9 9 10 10 10 11 11 12 12
20 19 19 19 19 20 19 19 17 17 16 15 15 15 14 13 12 12 11 12 11 11 10 10 9 9 9 9 10 9 9 9 10 10 10 10 10 10 10 11 11 12 12 12 12 13 13 13 14
21 20 19 18 18 19 21 21 19 18 17 16 16 16 15 15 14 14 13 13 12 12 12 11 11 11 11 11 11 11 12 11 12 12 12 12 12 12 12 13 13 13 14 14 14 15 15 16 16
22 22 21 21 21 21 21 21 20 20 19 18 18 18 17 17 16 16 15 15 14 14 14 13 12 12 12 13 13 12 13 13 14 14 14 13 13 13 14 14 15 16 16 17 18 18 18 18 18
23 22 22 22 22 22 22 22 21 21 19 19 20 20 19 19 18 18 17 17 17 16 15 14 14 13 14 15 15 14 14 14 15 15 14 15 15 15 15 16 17 17 18 19 19 19 20 20 20
25 25 25 25 25 23 22 21 21 21 20 19 19 20 19 20 20 20 19 18 18 18 17 16 16 15 16 16 16 16 16 16 15 15 16 17 17 17 18 18 18 19 20 20 20 20 21 22 22
27 27 27 27 27 26 25 24 23 22 21 20 20 21 21 22 22 22 22 21 20 20 19 18 18 18 18 18 18 18 18 18 18 17 18 19 19 19 20 20 20 20 21 21 21 21 21 21 22
Wind_Direction
73 73 73 73 71 66 67 67 67 68 69 71 74 76 82 84 86 87 86 79 84 100 129 131 146 147 144 149 158 161 163 162 162 163 159 157 155 153 151 152 153 154 152 148 148 149 149 146 143
74 74 74 74 73 68 65 64 65 66 66 68 69 72 75 75 80 79 81 76 78 92 109 137 144 146 145 151 160 163 161 160 162 161 154 153 153 152 149 149 148 151 148 150 149 151 153 152 151
75 75 74 72 71 71 67 64 63 64 64 65 66 68 70 71 73 75 76 75 80 84 95 123 140 142 146 151 159 163 163 163 162 157 154 153 151 152 150 148 147 148 149 152 146 148 152 153 153
76 75 72 71 71 69 68 66 64 62 62 62 64 65 66 67 69 72 71 71 77 88 89 116 133 139 142 148 153 159 164 163 161 154 154 154 151 152 153 148 148 151 153 152 147 146 149 152 153
77 74 69 67 68 68 68 66 64 61 60 61 61 63 64 64 65 68 71 73 81 98 103 116 131 138 142 145 147 152 155 158 158 157 154 155 156 154 154 151 151 153 155 151 148 150 152 152 154
79 74 75 72 68 66 66 65 64 62 61 61 62 65 64 63 63 66 69 72 82 93 109 126 136 144 143 143 143 146 147 151 154 156 155 154 155 155 153 153 156 157 156 153 152 153 158 157 157
80 79 75 73 69 66 66 64 62 61 61 62 63 63 64 63 63 63 65 68 79 91 105 121 129 139 137 140 143 148 149 151 153 155 155 157 157 157 159 159 159 160 160 158 160 161 162 161 163
81 80 75 73 70 65 65 63 61 60 59 60 62 62 62 64 64 65 65 68 76 87 92 106 122 124 129 137 148 150 150 150 155 158 157 160 160 160 162 164 166 167 170 167 167 167 173 176 174
81 80 78 77 73 66 65 63 61 59 57 57 58 58 60 62 64 64 64 64 67 77 88 98 106 112 127 139 145 154 157 153 156 159 160 161 163 167 168 169 170 172 175 172 174 173 175 180 183
82 85 81 77 74 69 66 63 61 57 55 54 56 57 58 60 62 61 62 62 64 71 82 94 102 110 123 138 142 148 156 159 160 165 167 165 168 170 168 169 172 175 180 182 183 179 178 179 185
87 87 80 75 74 70 66 62 59 56 53 51 52 53 55 55 57 58 59 60 60 67 74 88 103 109 114 126 139 147 154 160 164 166 169 171 172 169 169 170 171 175 179 185 190 190 186 190 194
98 87 79 74 72 69 64 61 59 56 52 49 48 48 49 51 53 53 55 57 59 63 70 84 97 113 117 125 137 145 154 162 163 166 165 172 174 169 170 172 171 172 175 182 187 193 199 204 201
128 105 75 73 76 70 65 61 57 53 50 47 46 45 46 47 48 49 51 52 57 60 67 81 90 107 116 122 131 137 145 156 160 163 165 167 173 173 173 175 176 182 189 196 200 209 202 206 208
162 147 97 79 83 74 69 63 54 47 44 41 42 43 42 44 44 45 47 50 54 59 65 74 81 94 106 117 126 129 139 152 160 161 163 166 168 171 175 180 185 190 197 202 205 208 205 206 206
203 201 222 229 82 76 67 54 45 38 37 36 37 41 40 42 42 41 43 48 50 53 58 66 80 87 100 107 116 129 139 149 159 165 169 170 174 177 182 188 195 196 198 203 205 207 209 204 207
227 229 250 252 239 222 67 40 31 27 28 28 30 32 33 34 38 39 40 44 47 49 53 57 75 86 96 103 108 126 134 143 151 159 167 173 179 181 188 193 193 193 198 205 210 208 206 208 216
243 240 243 252 246 238 237 327 348 3 15 20 21 23 27 27 29 34 37 39 42 43 46 50 62 76 84 93 103 124 130 139 151 161 169 175 177 179 183 184 186 192 199 208 212 211 215 219 226
239 241 244 248 251 245 251 257 285 316 346 0 9 11 15 17 20 22 25 29 30 29 33 35 46 59 67 88 99 114 121 137 157 163 166 174 179 181 182 182 182 189 202 212 217 217 221 227 228
234 236 244 250 254 249 249 257 273 286 303 323 344 356 357 4 11 11 9 6 10 10 9 11 11 20 50 94 105 120 138 142 160 164 165 173 182 190 197 199 198 203 212 215 220 225 227 235 235
237 242 247 251 254 254 253 261 267 271 282 293 306 324 337 343 352 355 350 345 343 348 352 348 348 353 16 44 352 221 201 193 185 191 197 204 204 204 208 214 218 224 231 233 235 235 238 243 247
240 244 246 248 254 257 260 269 271 269 271 280 286 291 306 313 321 323 325 325 326 324 326 320 307 314 316 305 292 277 258 242 232 231 231 229 225 226 226 228 235 239 241 242 245 244 250 256 260
244 247 249 252 253 261 262 265 269 268 270 274 276 279 289 291 294 297 302 305 310 306 304 302 293 292 293 282 271 268 264 258 259 253 245 241 240 243 245 245 248 248 249 253 257 260 261 265 266
243 247 249 251 251 252 258 262 264 265 268 270 273 274 281 282 283 278 282 289 294 293 290 288 287 288 281 275 275 276 265 260 261 258 254 251 248 251 255 258 255 253 256 260 263 266 267 272 270
246 249 251 252 250 251 253 257 260 263 265 264 265 268 274 276 276 271 269 275 280 283 282 283 285 283 278 271 271 269 266 267 265 263 261 259 256 254 258 262 259 258 260 264 267 266 268 271 273
246 247 252 253 252 254 255 256 257 258 259 261 264 267 269 271 270 266 266 268 272 275 274 277 278 279 276 272 269 266 262 263 266 266 261 260 260 261 263 263 262 259 260 263 267 268 269 274 275
245 244 244 247 253 258 261 260 260 262 261 263 264 265 265 266 266 263 268 269 270 271 270 271 273 273 270 271 270 267 267 270 268 263 260 259 262 263 263 263 263 262 260 262 267 270 271 276 277
247 245 244 247 250 253 256 262 262 262 262 262 262 262 263 264 266 265 264 266 267 270 267 266 268 270 271 271 272 271 272 273 271 267 265 261 263 265 265 265 265 265 267 268 268 270 271 274 275
246 247 246 244 250 255 261 264 265 266 264 263 262 262 261 260 261 262 259 262 264 266 268 267 267 268 269 272 272 272 272 272 272 267 264 264 264 265 266 267 267 268 270 271 271 271 269 272 274
248 247 247 247 248 253 260 263 263 265 264 261 260 260 260 257 257 258 258 260 263 264 264 265 266 269 270 271 271 272 270 270 271 266 262 265 266 266 266 267 267 269 269 270 272 273 272 271 271
250 251 251 251 253 252 254 260 264 264 263 261 260 259 259 255 255 256 257 259 261 264 264 264 264 266 269 270 270 271 272 271 270 267 263 264 265 265 265 266 268 267 269 270 272 273 273 273 274
Height
5888 5887 5886 5886 5886 5886 5885 5883 5881 5879 5878 5876 5874 5873 5872 5872 5872 5874 5870 5868 5867 5865 5864 5865 5865 5865 5866 5867 5868 5869 5870 5873 5875 5876 5878 5880 5882 5883 5885 5886 5888 5890 5891 5893 5894 5895 5897 5898 5899
5890 5889 5890 5889 5889 5890 5888 5885 5883 5881 5879 5877 5876 5874 5873 5872 5872 5871 5869 5869 5868 5867 5865 5865 5866 5866 5867 5868 5869 5870 5871 5873 5875 5877 5879 5881 5882 5884 5886 5887 5889 5890 5892 5893 5895 5896 5897 5898 5900
5893 5892 5892 5891 5892 5891 5890 5887 5885 5882 5881 5879 5877 5876 5875 5873 5872 5871 5870 5870 5869 5868 5867 5867 5867 5867 5868 5869 5870 5871 5872 5874 5876 5878 5880 5881 5883 5885 5886 5887 5889 5891 5893 5894 5896 5897 5898 5899 5900
5896 5896 5895 5896 5895 5893 5891 5889 5887 5884 5882 5880 5879 5878 5876 5875 5874 5873 5872 5871 5870 5869 5868 5868 5868 5868 5869 5869 5870 5871 5873 5874 5876 5878 5881 5883 5884 5886 5887 5889 5891 5892 5894 5895 5896 5898 5899 5900 5901
5898 5898 5899 5899 5897 5895 5893 5891 5889 5886 5884 5882 5881 5879 5877 5876 5875 5874 5873 5872 5871 5870 5869 5870 5870 5870 5870 5870 5871 5872 5873 5875 5877 5879 5882 5884 5885 5887 5888 5890 5892 5893 5895 5896 5897 5899 5900 5901 5902
5901 5901 5903 5902 5900 5898 5896 5893 5891 5889 5886 5884 5883 5881 5879 5878 5877 5875 5874 5873 5872 5872 5871 5871 5871 5871 5871 5871 5872 5873 5874 5876 5878 5880 5882 5884 5886 5888 5889 5891 5892 5894 5896 5897 5898 5899 5901 5902 5903
5904 5904 5904 5904 5902 5900 5898 5895 5893 5891 5889 5887 5885 5883 5881 5880 5878 5877 5876 5875 5874 5873 5872 5872 5872 5872 5873 5873 5874 5875 5876 5877 5879 5881 5883 5885 5887 5889 5890 5892 5893 5895 5896 5897 5899 5900 5901 5902 5903
5905 5907 5907 5906 5904 5902 5900 5897 5895 5893 5891 5889 5888 5886 5884 5882 5880 5879 5878 5877 5876 5875 5874 5874 5874 5873 5874 5874 5875 5876 5877 5879 5880 5882 5884 5886 5887 5889 5891 5893 5894 5895 5896 5898 5899 5900 5901 5903 5904
5907 5910 5909 5907 5906 5904 5902 5900 5897 5895 5893 5891 5890 5888 5887 5885 5883 5882 5881 5879 5878 5877 5876 5876 5876 5875 5876 5876 5877 5878 5879 5880 5882 5883 5885 5886 5888 5890 5892 5893 5894 5896 5897 5899 5900 5901 5902 5903 5904
5909 5911 5910 5909 5907 5906 5904 5902 5900 5897 5896 5894 5892 5890 5889 5887 5886 5884 5883 5882 5880 5879 5879 5878 5878 5878 5878 5878 5879 5879 5880 5882 5883 5884 5885 5887 5889 5890 5892 5894 5895 5896 5897 5898 5900 5901 5902 5903 5904
5911 5911 5911 5910 5908 5907 5905 5904 5902 5900 5898 5896 5894 5893 5891 5889 5888 5886 5885 5884 5883 5881 5881 5880 5880 5879 5880 5880 5880 5881 5882 5883 5884 5885 5886 5888 5889 5891 5893 5894 5895 5896 5897 5899 5900 5901 5902 5903 5904
5912 5912 5911 5911 5910 5908 5907 5905 5903 5902 5900 5898 5896 5895 5893 5892 5890 5889 5887 5886 5885 5884 5883 5882 5882 5881 5881 5881 5881 5882 5882 5883 5884 5886 5887 5888 5890 5892 5893 5894 5896 5897 5897 5899 5900 5901 5902 5903 5904
5912 5912 5912 5911 5911 5910 5908 5907 5905 5904 5902 5900 5898 5897 5895 5894 5892 5891 5890 5888 5887 5886 5885 5884 5883 5883 5883 5883 5883 5882 5882 5883 5885 5887 5888 5889 5891 5892 5894 5895 5896 5897 5898 5899 5900 5901 5902 5903 5904
5912 5912 5912 5912 5911 5911 5910 5908 5907 5905 5903 5902 5900 5899 5897 5896 5894 5893 5892 5890 5889 5888 5887 5886 5885 5885 5884 5884 5884 5883 5883 5884 5886 5888 5889 5890 5891 5893 5894 5895 5897 5897 5898 5899 5900 5901 5902 5903 5903
5911 5913 5913 5912 5912 5911 5911 5910 5908 5907 5905 5903 5902 5900 5899 5898 5896 5895 5893 5892 5891 5890 5889 5888 5887 5886 5886 5886 5885 5884 5884 5885 5887 5888 5890 5891 5892 5893 5894 5895 5896 5897 5898 5899 5900 5901 5901 5902 5903
5911 5913 5914 5912 5912 5911 5913 5912 5909 5908 5906 5904 5903 5902 5900 5899 5897 5896 5895 5894 5892 5891 5890 5889 5889 5888 5888 5887 5887 5887 5886 5887 5888 5889 5890 5891 5892 5893 5894 5895 5896 5897 5898 5899 5900 5900 5901 5902 5903
5910 5912 5913 5912 5911 5911 5912 5911 5910 5908 5907 5905 5904 5903 5901 5900 5899 5897 5896 5895 5894 5893 5892 5891 5890 5890 5889 5889 5889 5889 5889 5889 5890 5890 5891 5892 5892 5893 5894 5895 5896 5897 5898 5899 5900 5900 5901 5901 5902
5909 5910 5910 5911 5910 5910 5910 5911 5910 5908 5907 5906 5905 5904 5902 5901 5900 5898 5897 5896 5895 5894 5893 5892 5892 5891 5891 5891 5890 5890 5891 5891 5891 5891 5892 5892 5893 5893 5894 5895 5896 5897 5898 5898 5899 5899 5900 5900 5901
5905 5906 5908 5908 5908 5908 5909 5909 5909 5908 5907 5906 5905 5904 5903 5902 5900 5899 5898 5897 5896 5895 5894 5893 5892 5892 5891 5891 5891 5892 5892 5892 5892 5893 5893 5893 5893 5894 5895 5896 5896 5897 5897 5898 5898 5898 5899 5899 5900
5901 5903 5905 5906 5905 5906 5907 5908 5907 5907 5907 5906 5905 5904 5903 5902 5901 5900 5898 5897 5896 5895 5894 5893 5893 5892 5892 5892 5892 5892 5892 5892 5893 5893 5893 5893 5893 5893 5894 5895 5896 5896 5897 5897 5897 5897 5898 5898 5899
5898 5900 5902 5903 5903 5903 5905 5906 5906 5905 5905 5905 5904 5903 5902 5901 5900 5900 5898 5897 5896 5895 5894 5894 5893 5893 5892 5892 5892 5892 5892 5892 5892 5893 5893 5893 5893 5893 5893 5894 5895 5895 5895 5896 5896 5896 5897 5897 5897
5894 5896 5897 5899 5900 5902 5903 5904 5904 5903 5903 5903 5902 5902 5901 5900 5899 5898 5898 5897 5896 5895 5894 5893 5893 5893 5892 5892 5892 5892 5892 5892 5892 5892 5892 5892 5892 5892 5892 5893 5893 5893 5894 5894 5895 5895 5895 5895 5895
5890 5892 5893 5894 5896 5898 5899 5900 5902 5900 5900 5900 5900 5899 5899 5898 5897 5897 5896 5895 5894 5894 5893 5892 5892 5892 5892 5891 5891 5891 5891 5891 5891 5891 5891 5890 5890 5891 5891 5891 5891 5892 5892 5892 5893 5893 5893 5893 5893
5886 5888 5889 5890 5892 5894 5895 5896 5898 5897 5897 5897 5897 5896 5896 5896 5895 5895 5894 5893 5893 5892 5891 5891 5890 5890 5890 5889 5889 5889 5889 5889 5889 5889 5889 5889 5888 5889 5889 5889 5889 5889 5890 5890 5890 5890 5891 5891 5890
5881 5884 5886 5887 5889 5890 5891 5891 5893 5893 5893 5893 5893 5893 5892 5892 5892 5892 5891 5891 5891 5890 5889 5889 5889 5888 5888 5887 5887 5887 5886 5887 5887 5886 5887 5887 5887 5887 5886 5886 5886 5887 5887 5887 5887 5887 5887 5887 5887
5876 5880 5883 5885 5887 5887 5885 5886 5888 5888 5887 5888 5888 5888 5888 5888 5888 5888 5888 5888 5887 5887 5887 5886 5886 5885 5885 5885 5885 5884 5884 5884 5884 5883 5883 5884 5884 5884 5883 5883 5883 5883 5884 5884 5884 5884 5884 5884 5883
5871 5873 5876 5879 5879 5881 5881 5881 5882 5882 5882 5883 5883 5883 5884 5884 5884 5884 5884 5884 5884 5883 5883 5883 5883 5882 5882 5882 5881 5881 5881 5881 5880 5880 5880 5880 5880 5880 5880 5879 5879 5879 5880 5880 5880 5879 5879 5879 5879
5866 5867 5869 5872 5873 5874 5876 5876 5877 5876 5877 5877 5878 5878 5878 5879 5879 5879 5880 5880 5879 5879 5879 5879 5879 5878 5878 5878 5878 5877 5877 5877 5876 5876 5876 5876 5876 5876 5876 5876 5875 5875 5875 5875 5875 5875 5874 5874 5874
5860 5861 5862 5865 5867 5869 5871 5873 5870 5870 5871 5872 5872 5872 5873 5873 5874 5874 5875 5875 5875 5875 5875 5875 5874 5874 5874 5874 5873 5873 5873 5872 5872 5872 5872 5872 5872 5872 5871 5871 5871 5871 5870 5870 5870 5870 5869 5868 5868
5852 5854 5856 5858 5859 5860 5863 5867 5864 5864 5864 5865 5866 5866 5867 5867 5868 5869 5869 5869 5869 5870 5870 5870 5870 5869 5869 5869 5869 5868 5868 5868 5867 5867 5867 5867 5867 5867 5867 5866 5866 5866 5865 5865 5865 5864 5864 5863 5862